Tracking 18987 objects as of 25-Feb-2018
HD Live streaming from Space Station
objects crossing your sky now

USA 139

Track USA 139 now!
USA 139 is classified as:


NORAD ID: 25336
Int'l Code: 1998-029A
Perigee: 35,613.8 km
Apogee: 35,974.7 km
Inclination: 9.0 °
Period: 1,436.1 minutes
Semi major axis: 42165 km
RCS: Unknown
Launch date: May 9, 1998
Source: United States (US)
Launch site: AIR FORCE EASTERN TEST RANGE (AFETR)

ELINT.
aabbcc
Your satellite tracking list
Your tracking list is empty




NASA's NSSDC Master Catalog

Two Line Element Set (TLE):
1 25336U 98029A   18048.65331495 0.00000000  00000-0  00000-0 0    07
2 25336   8.9667 356.3530 0042804 266.0512  93.4661  1.00270000    01
Source of the keplerian elements: McCants